Location: Risskov
(56.1972°N, 10.2480°E)
Time: 23:44:44
(UTC+00:00)

Cosmos 1980 - Pass Details

Date: 05 July 2020
Orbit: 839 x 847 km, 71.0° (Epoch: 14 August)

Event Time Altitude Azimuth Distance (km) Brightness Sun altitude
Exits shadow 21:56:24 - 189° (S) 2,700 5.8 -9.0°
Reaches altitude 10° 21:57:04 10° 187° (S) 2,451 5.6 -9.0°
Maximum altitude 22:02:28 49° 114° (ESE) 1,071 4.0 -9.3°
Drops below altitude 10° 22:07:54 10° 41° (NE) 2,469 6.6 -9.5°
Sets 22:10:25 0° 36° (NE) 3,408 7.4 -9.6°
